This is the latest recevied weather packets stored in our database for station/object W3BRL. If no packets are shown the sender has not sent any weather packets the latest 10 day(s).
| Time | Temp. | Humidity | Pressure | Rain* | Wind** | Luminosity | Snow |
|---|---|---|---|---|---|---|---|
| 1777557862 | 7.22° C | 92% | 1008.6 hPa | 0 mm | - | 109 W/m² | - |
| 1777557560 | 7.22° C | 92% | 1008.6 hPa | 0 mm | - | 101 W/m² | - |
| 1777557256 | 7.22° C | 93% | 1008.4 hPa | 0 mm | - | 135 W/m² | - |
| 1777556952 | 7.22° C | 93% | 1008.4 hPa | 0 mm | - | 113 W/m² | - |
| 1777556647 | 7.78° C | 93% | 1008.4 hPa | 0 mm | - | 96 W/m² | - |
| 1777556342 | 7.78° C | 93% | 1008.4 hPa | 0 mm | - | 139 W/m² | - |
| 1777556039 | 7.78° C | 93% | 1008.4 hPa | 1.78 mm | - | 181 W/m² | - |
| 1777555733 | 7.78° C | 93% | 1008 hPa | 1.78 mm | - | 201 W/m² | - |
| 1777555430 | 7.78° C | 93% | 1008.3 hPa | 0 mm | - | 68 W/m² | - |
| 1777555126 | 7.78° C | 92% | 1008 hPa | 0 mm | - | 116 W/m² | - |
| 1777554824 | 7.78° C | 92% | 1008 hPa | 0 mm | - | 78 W/m² | - |
| 1777554521 | 7.78° C | 91% | 1007.8 hPa | 1.27 mm | - | 135 W/m² | - |
| 1777554218 | 8.33° C | 91% | 1008.1 hPa | 1.27 mm | - | 150 W/m² | - |
| 1777553914 | 8.33° C | 90% | 1007.7 hPa | 1.78 mm | - | 151 W/m² | - |
| 1777553611 | 8.33° C | 89% | 1007.7 hPa | 1.78 mm | - | 115 W/m² | - |
| 1777553307 | 8.89° C | 87% | 1007.8 hPa | 0 mm | - | 64 W/m² | - |
| 1777553003 | 8.89° C | 85% | 1007.6 hPa | 0 mm | - | 52 W/m² | - |
| 1777552703 | 8.89° C | 85% | 1007.5 hPa | 0 mm | - | 51 W/m² | - |
| 1777552400 | 8.89° C | 84% | 1007.5 hPa | 0 mm | - | 51 W/m² | - |
| 1777552096 | 8.89° C | 84% | 1007.4 hPa | 0 mm | - | 59 W/m² | - |
| 1777551794 | 8.89° C | 84% | 1007.7 hPa | 0 mm | - | 82 W/m² | - |
| 1777551492 | 8.89° C | 85% | 1007.4 hPa | 0 mm | - | 140 W/m² | - |
| 1777551188 | 8.89° C | 84% | 1007.5 hPa | 0 mm | - | 156 W/m² | - |
| 1777550885 | 8.89° C | 85% | 1007.4 hPa | 0 mm | - | 85 W/m² | - |
| 1777550581 | 8.89° C | 85% | 1007.6 hPa | 0 mm | - | 43 W/m² | - |
* Rain latest hour (hover to see other rain measurements)
** Current wind speed in m/s (hover to see current wind gust speed)